Weather in Staroye Melkovo

Russia / Tver Oblast     56°39′17″N   36°26′24″E
temp.,
°C
wind,
m/s
gust,
m/s
humid.,
%
clouds,
%
prec.,
mm/h
press.,
hPa
HPBL,
m
9 may, sun
sun900:00+5nnw61195100 1.4 1005881
03:00+4nw61293100 2.6 1006755
06:00+3nw61190100 0.0 1009811
09:00+3nw61081100 0.1 1012966
12:00+10nnw694898 0.0 10131817
15:00+12nw6943100 0.0 10142383
18:00+11nw484897 0.0 10171340
21:00+5nw39695 0.0 1020165
10 may, mon
mon1000:00+3nw27780 0.0 1023141
03:00+1nnw23801 0.0 102641
06:00+3n13670 0.0 102875
09:00+9n12405 0.0 1029526
12:00+13nnw12345 0.0 10291266
15:00+15nw12335 0.0 10281557
18:00+14ene114011 0.0 10281372
21:00+8ese225763 0.0 103010
11 may, tue
tue1100:00+6se227052 0.0 103012
03:00+5ese117454 0.0 103110
06:00+6e237470 0.0 103270
09:00+12e355197 0.0 1031560
12:00+16e4539100 0.0 10301049
15:00+18e343738 0.0 10291229
18:00+17ene36506 0.0 1028515
21:00+11e24760 0.0 102957
12 may, wed
wed1200:00+9e25840 0.0 102976
03:00+8ene26882 0.0 1028106
06:00+9ene39835 0.0 1028226
09:00+16ene48681 0.0 1026509
12:00+21e695619 0.0 10251578
15:00+21ese6115691 0.4 10241625
18:00+19ese41167100 0.0 10241009
21:00+14ese3109093 0.1 1024249
13 may, thu
thu1300:00+14e2791100 0.3 1023187
03:00+13ene31095100 0.4 1021255
06:00+13e4119399 0.1 1021423
09:00+15ese51290100 0.6 1020793
12:00+17se51083100 0.8 10191284
15:00+17se5108199 2.0 10191145
18:00+16se5108189 0.7 1018932
21:00+13ese389618 0.7 1018258